Starlink 34203

operational
NORAD ID: 64246 Int'l Des: 2025-119 Owner: SPXS Country: US Constellation: starlink
LEOCIRCULAR

About Starlink 34203

Description loading...

Live Position

Loading 3D Globe...

Upcoming Passes

Altitude History

Altitude vs Time

uPlot chart will show altitude changes over time

Two-Line Element Set

1 64246U 25119P 25306.27287557 .00037594 00000-0 13674-2 0 9990
2 64246 43.0031 306.5424 0000940 280.8120 79.2626 15.27611456 24694
Epoch: Nov 2, 2025 • Age: 45 hours

Current Status

Altitude 489.3 km
Velocity 7.62 km/s
Sub-Earth Point -27.23°S, 53.84°E
Launch Date Jun 3, 2025
Age 0.4 years
Type internet

Technical Details

Classification Payload
Mass 575.00 kg
Dry Mass 530.00 kg
Total Mass 575.00 kg
Length 0.30 m
Diameter 4.10 m
Span 29.00 m
Shape Box + pan
Manufacturer SPXS
Bus Type Starlink V2MO
Phase Status In Orbit
Owner/State SPXS/US

Large Constellations

Loading constellations...